Regional Weather Roundup
Issued by NWS

Home | Current Version | Previous Version | Graphics & Text | Print | Product List | Glossary On
Versions: 1 2 3 4 5 6 7 8 9 10 11 12 13 14 15 16 17 18 19 20 21 22 23 24 25 26 27 28 29 30 31 32 33 34 35 36 37 38 39 40 41 42 43 44 45 46 47 48 49 50
000
ASUS43 KIND 210809
RWRIN

WEATHER ROUNDUP FOR INDIANA
NATIONAL WEATHER SERVICE INDIANAPOLIS IN
400 AM EDT TUE APR 21 2015

NOTE: "FAIR" INDICATES FEW OR NO CLOUDS BELOW 12,000 FEET WITH NO
SIGNIFICANT WEATHER AND/OR OBSTRUCTIONS TO VISIBILITY.

* - STATION DOES NOT REPORT WEATHER SUCH AS PRECIPITATION OR FOG.

+ - STATION NOT QUALITY CONTROLLED BY THE NATIONAL WEATHER SERVICE.
    USE DATA WITH CAUTION...ESPECIALLY DEWPOINT AND RELATIVE
    HUMIDITY OBSERVATIONS.

INZ001>003-010>013-019-020-210900-
NORTHWEST INDIANA

CITY           SKY/WX    TMP DP  RH WIND       PRES   REMARKS
GARY /AIRPORT/ MOCLDY    45  30  56 SW7       29.62F
KNOX *+        MOCLDY    39  27  60 SW10      29.64F
LA PORTE +     CLOUDY    43  36  74 SW12      29.63F
MICHIGAN CITY+ DRIZZLE   43  30  61 SW12      29.62S
MONTICELLO +   FAIR      40  36  83 SW9       29.67S
RENSSELAER +   CLEAR     37  36  93 W6        29.68R
VALPARAISO     CLOUDY    41  34  76 SW10      29.64F

$$

LMZ046-743>745-210900-
SOUTHERN LAKE MICHIGAN

STATION/POSITION TIME  TEMP    WIND        PRES    WAVE
                       AIR SEA DIR/SP/G            HT
                 (UTC) (F)     (DEG/KT/KT) (MB)    (FT)
BURNS HARBOR     0800   45     220/ 13/ 25 1003.7S
MICHIGAN CITY    0800   44     200/ 18/ 22   N/A
5NW MICH CITY    0800   44 45  240/ 17/ 25   N/A     4

$$

INZ004-005-014>016-021>024-210900-
NORTH CENTRAL INDIANA

CITY           SKY/WX    TMP DP  RH WIND       PRES   REMARKS
GOSHEN         CLOUDY    42  35  76 SW12      29.63F
LOGANSPORT +   FAIR      39  36  87 SW12      29.68F
PERU/GRISSOM   CLEAR     40  35  82 SW13      29.67F
ROCHESTER +    PTCLDY    43  37  81 SW9       29.66F
SOUTH BEND     CLOUDY    43  33  68 SW15      29.62F
WARSAW +       CLOUDY    43  34  70 SW8G16    29.65S

$$

INZ006>009-017-018-025>027-210900-
NORTHEAST INDIANA

CITY           SKY/WX    TMP DP  RH WIND       PRES   REMARKS
ANGOLA *+      CLOUDY    41  34  75 W13       29.62S
AUBURN +       CLOUDY    43  34  70 SW7       29.66S
FORT WAYNE     PTCLDY    41  35  79 SW13      29.68S
HUNTINGTON +   PTCLDY    40  32  73 SW6       29.67F

$$

INZ028-029-035-036-043>045-051>053-210900-
WEST CENTRAL INDIANA

CITY           SKY/WX    TMP DP  RH WIND       PRES   REMARKS
CRAWFORDSVL +  CLEAR     40  30  67 SW10      29.72F
GREENCASTLE +  CLEAR     41  32  70 SW5       29.76S
LAFAYETTE      CLEAR     41  34  76 SW10      29.70S
TERRE HAUTE    CLEAR     44  34  67 SW9       29.77S

$$

INZ030>032-037>040-046>048-054>057-064-065-210900-
CENTRAL INDIANA

CITY           SKY/WX    TMP DP  RH WIND       PRES   REMARKS
CP ATTERBURY + CLEAR     43  34  70 SW6       29.78F
FISHERS *+     CLEAR     41  36  81 SW10      29.73F
FRANKFORT +    CLEAR     41  36  81 S13       29.71F
GREENWOOD *+   CLEAR     43  32  65 SW8       29.76F
INDIANAPOLIS   CLEAR     42  33  70 SW12      29.73F
-EAGLE CREEK   CLEAR     43  34  70 SW7       29.73F
KOKOMO *+      CLEAR     43  34  70 SW16      29.69S
MARION +       CLEAR     39  34  81 SW12      29.70F
MT COMFORT *+  CLEAR     43  28  56 SW13      29.74F
SHELBYVILLE    CLEAR     45  35  68 SW13      29.76F
ZIONSVILLE +   CLEAR     44  33  66 SW14G21   29.73S

$$

INZ033-034-041-042-049-050-058-059-210900-
EAST CENTRAL INDIANA

CITY           SKY/WX    TMP DP  RH WIND       PRES   REMARKS
MUNCIE         CLEAR     43  35  73 SW12      29.71F

$$

INZ060-061-067>069-081>083-085>088-210900-
SOUTHWEST INDIANA

CITY           SKY/WX    TMP DP  RH WIND       PRES   REMARKS
EVANSVILLE     CLEAR     43  36  76 SW5       29.86F
HUNTINGBURG *+ CLEAR     43  34  70 SW9       29.85S
WASHINGTON +   CLEAR     46  33  61 SW9       29.81F

$$

INZ062-063-066-070>080-084-089>092-210900-
SOUTH CENTRAL AND SOUTHEAST INDIANA

CITY           SKY/WX    TMP DP  RH WIND       PRES   REMARKS
BEDFORD +      CLEAR     45  32  61 SW5       29.81F
BLOOMINGTON    CLEAR     44  34  67 SW7       29.78F
MADISON *+     CLEAR     43  34  70 SW6       29.83F
NORTH VERNON + CLEAR     43  37  81 SW7       29.81S

$$



USA.gov is the U.S. government's official web portal to all federal, state and local government web resources and services.